Weather History for Camp Pendleton, CA

Change the Weather History Date:

Monday, March 12, 2012

  Actual Average Record
Temperature  
Mean Temperature 55 °F -  
Max Temperature 64 °F 65 °F 91 °F (2007)
Min Temperature 46 °F 43 °F 34 °F (1999)
Degree Days  
Heating Degree Days 10    
Growing Degree Days 5 (Base 50)    
Moisture  
Dew Point 45 °F    
Average Humidity 68    
Maximum Humidity 86    
Minimum Humidity 50    
Precipitation  
Precipitation 0.00 in - - ()
Sea Level Pressure  
Sea Level Pressure 30.04 in    
Wind  
Wind Speed 2 mph (SW)    
Max Wind Speed 10 mph    
Max Gust Speed 17 mph    
Visibility 10 miles    
Events      
Averages and records for this station are not official NWS values.
T = Trace of Precipitation, MM = Missing Value Source: NWS Daily Summary

Daily Weather History Graph

Daily Weather History Graph

Search for Another Location

Airport:

Trip Planner

Search our weather history database for the weather conditions in past years. The results will help you decide how hot, cold, wet, or windy it might be!

Date:

Astronomy

Mar. 12, 2012 Rise Set
Actual Time 7:02 AM PDT 6:55 PM PDT
Civil Twilight 6:38 AM PDT 7:20 PM PDT
Nautical Twilight 6:09 AM PDT 7:48 PM PDT
Astronomical Twilight 5:40 AM PDT 8:17 PM PDT
Moon No Moon Rise 9:45 AM PDT (3/12)
Length of Visible Light 12h 41m
Length of Day
11h 52m
Waning Gibbous, 75% of the Moon is Illuminated
Mar 12
Waning Gibbous
Mar 14
Last Quarter
Mar 22
New
Mar 30
First Quarter
Apr 6
Full

Hourly Weather History & Observations

Time (PDT) Temp. Dew Point Humidity Pressure Visibility Wind Dir Wind Speed Gust Speed Precip Events Conditions
12:54 AM 53.1 °F 45.0 °F 74% 30.04 in 10.0 mi Calm Calm - N/A   Overcast
1:54 AM 53.1 °F 45.0 °F 74% 30.04 in 10.0 mi Calm Calm - N/A   Overcast
2:54 AM 54.0 °F 45.0 °F 72% 30.04 in 10.0 mi Calm Calm - N/A   Overcast
3:54 AM 53.1 °F 46.0 °F 77% 30.04 in 10.0 mi Calm Calm - N/A   Overcast
4:54 AM 54.0 °F 44.1 °F 69% 30.03 in 10.0 mi Calm Calm - N/A   Overcast
5:54 AM 54.0 °F 44.1 °F 69% 30.04 in 10.0 mi Calm Calm - N/A   Overcast
6:54 AM 53.1 °F 44.1 °F 71% 30.05 in 10.0 mi Calm Calm - N/A   Overcast
7:54 AM 54.0 °F 43.0 °F 66% 30.06 in 10.0 mi Calm Calm - N/A   Mostly Cloudy
8:54 AM 55.0 °F 43.0 °F 64% 30.08 in 10.0 mi Calm Calm - N/A   Mostly Cloudy
9:54 AM 57.0 °F 43.0 °F 59% 30.08 in 10.0 mi South 3.5 mph - N/A   Scattered Clouds
10:55 AM 59.0 °F 42.1 °F 53% 30.07 in 10.0 mi Calm Calm - N/A   Scattered Clouds
11:54 AM 63.0 °F 44.1 °F 50% 30.06 in 10.0 mi WSW 5.8 mph - N/A   Scattered Clouds
12:55 PM 63.0 °F 45.0 °F 52% 30.04 in 10.0 mi Variable 5.8 mph - N/A   Scattered Clouds
1:55 PM 64.0 °F 45.0 °F 50% 30.01 in 10.0 mi WSW 10.4 mph - N/A   Scattered Clouds
2:54 PM 63.0 °F 48.0 °F 58% 30.00 in 10.0 mi WSW 9.2 mph 16.1 mph N/A   Partly Cloudy
2:55 PM 63.0 °F 48.0 °F 58% 30.00 in 10.0 mi WSW 9.2 mph 16.1 mph N/A   Partly Cloudy
3:54 PM 61.0 °F 46.9 °F 60% 30.00 in 10.0 mi WSW 10.4 mph 17.3 mph N/A   Partly Cloudy
3:55 PM 61.0 °F 46.9 °F 60% 30.00 in 10.0 mi WSW 10.4 mph 17.3 mph N/A   Partly Cloudy
4:54 PM 61.0 °F 46.9 °F 60% 29.99 in 10.0 mi SW 8.1 mph - N/A   Partly Cloudy
5:54 PM 57.9 °F 46.9 °F 67% 29.99 in 10.0 mi SW 6.9 mph - N/A   Partly Cloudy
6:54 PM 55.0 °F 46.9 °F 74% 30.01 in 10.0 mi SSW 4.6 mph - N/A   Partly Cloudy
7:54 PM 54.0 °F 46.0 °F 75% 30.03 in 10.0 mi SSW 3.5 mph - N/A   Partly Cloudy
8:54 PM 48.0 °F 43.0 °F 83% 30.05 in 10.0 mi Calm Calm - N/A   Partly Cloudy
9:54 PM 46.9 °F 42.1 °F 83% 30.07 in 10.0 mi NE 3.5 mph - N/A   Scattered Clouds
10:54 PM 46.9 °F 42.1 °F 83% 30.08 in 10.0 mi Calm Calm - N/A   Clear
11:38 PM 46.4 °F 41.0 °F 81% 30.09 in 10.0 mi Calm Calm - N/A   Mostly Cloudy
11:54 PM 46.9 °F 43.0 °F 86% 30.08 in 10.0 mi Calm Calm - N/A   Mostly Cloudy